KB1JDX Weather Reports


time (UTC)temp
F
wind
direction
speed
knots
gust
knots
rain 1hr
in
rain 24hr
in
rain mn
in
humidity
%
barometer
mb
20260906223207 67 5 0.0 0.0 0.00 0.00 0.00 24 1014.7
20260906223104 67 5 0.0 0.0 0.00 0.00 0.00 25 1014.6
20260906215207 68 5 0.0 0.0 0.00 0.00 0.00 29 1014.4
20260906213207 68 5 0.0 0.0 0.00 0.00 0.00 30 1014.5
20260906213104 68 5 0.0 0.0 0.00 0.00 0.00 30 1014.5
20260906211207 68 5 0.0 0.0 0.00 0.00 0.00 28 1014.4
20260906205207 69 5 0.0 5.2 0.00 0.00 0.00 24 1014.4
20260906203207 68 5 0.0 5.2 0.00 0.00 0.00 17 1014.4
20260906203104 68 5 0.0 5.2 0.00 0.00 0.00 16 1014.3
20260906195207 67 5 0.0 0.0 0.00 0.00 0.00 100 1014.3
20260906193209 69 11 0.0 0.0 0.00 0.00 0.00 37 1014.4
20260906193104 69 14 0.0 0.0 0.00 0.00 0.00 39 1014.4
20260906191208 73 336 0.0 0.0 0.00 0.00 0.00 44 1014.1
20260906185207 74 336 0.0 0.0 0.00 0.00 0.00 42 1014.0
20260906183207 73 336 0.0 0.0 0.00 0.00 0.00 40 1014.2
20260906183104 73 336 0.0 0.0 0.00 0.00 0.00 41 1014.2
20260906181207 72 338 0.0 0.0 0.00 0.00 0.00 38 1014.2
20260906175207 72 337 0.0 0.0 0.00 0.00 0.00 33 1014.7
20260906173207 69 333 0.0 0.0 0.00 0.00 0.00 25 1014.7
20260906173104 69 335 0.0 0.0 0.00 0.00 0.00 25 1014.7
20260906171208 67 335 0.0 0.0 0.00 0.00 0.00 17 1014.9
20260906165207 67 335 0.0 0.0 0.00 0.00 0.00 18 1015.1
20260906163207 67 335 0.0 0.0 0.00 0.00 0.00 15 1015.2
20260906163104 66 335 0.0 0.0 0.00 0.00 0.00 14 1015.2
20260906161207 66 49 0.0 0.0 0.00 0.00 0.00 100 1015.3
20260906155206 64 347 0.0 0.0 0.00 0.00 0.00 100 1015.5
20260906153207 63 79 0.0 0.0 0.00 0.00 0.00 100 1015.6
20260906153104 63 79 0.0 0.0 0.00 0.00 0.00 100 1015.7
20260906145207 62 84 0.0 0.0 0.00 0.00 0.00 100 1015.7
20260906143207 61 84 0.0 0.0 0.00 0.00 0.00 100 1015.8
20260906143104 61 84 0.0 0.0 0.00 0.00 0.00 100 1015.8
20260906141207 61 84 0.0 0.0 0.00 0.00 0.00 100 1015.8
20260906135207 61 84 0.0 0.0 0.00 0.00 0.00 100 1015.5
20260906133207 60 84 0.0 0.0 0.00 0.00 0.00 100 1015.7
20260906133104 60 84 0.0 0.0 0.00 0.00 0.00 100 1015.7
20260906131207 59 84 0.0 0.0 0.00 0.00 0.00 100 1015.5
20260906125207 59 84 0.0 0.0 0.00 0.00 0.00 100 1015.3
20260906123207 59 84 0.0 0.0 0.00 0.00 0.00 100 1015.4
20260906123104 59 84 0.0 0.0 0.00 0.00 0.00 100 1015.4
20260906121207 59 84 0.0 0.0 0.00 0.00 0.00 100 1015.2
20260906115207 59 84 0.0 0.0 0.00 0.00 0.00 100 1015.1
20260906113207 60 84 0.0 0.0 0.00 0.00 0.00 100 1014.7
20260906113104 60 84 0.0 0.0 0.00 0.00 0.00 100 1014.6
20260906111207 60 84 0.0 0.0 0.00 0.00 0.00 100 1014.3
20260906105207 60 84 0.0 0.0 0.00 0.00 0.00 100 1014.0
20260906103207 60 84 0.0 0.0 0.00 0.00 0.00 100 1013.8
20260906103104 60 84 0.0 0.0 0.00 0.00 0.00 100 1013.7
20260906101207 60 84 0.0 0.0 0.00 0.00 0.00 100 1013.3
20260906095207 60 84 0.0 0.0 0.00 0.00 0.00 100 1013.2
20260906093207 60 84 0.0 0.0 0.00 0.00 0.00 100 1013.0
20260906093104 60 84 0.0 0.0 0.00 0.00 0.00 100 1012.9
20260906085207 60 84 0.0 0.0 0.00 0.00 0.00 100 1012.9
20260906083206 60 84 0.0 0.0 0.00 0.00 0.00 100 1012.8
20260906083104 60 84 0.0 0.0 0.00 0.00 0.00 100 1012.9
20260906081207 60 84 0.0 0.0 0.00 0.00 0.00 100 1012.8
20260906073207 61 84 0.0 0.0 0.00 0.00 0.00 100 1012.8
20260906073104 61 84 0.0 0.0 0.00 0.00 0.00 100 1012.7
20260906065207 61 84 0.0 0.0 0.00 0.00 0.00 100 1012.6
20260906063207 61 84 0.0 0.0 0.00 0.00 0.00 100 1012.6
20260906063104 61 84 0.0 0.0 0.00 0.00 0.00 100 1012.6
20260906055207 61 84 0.0 0.0 0.00 0.00 0.00 100 1012.7
20260906053207 61 84 0.0 0.0 0.00 0.00 0.00 100 1012.7
20260906053104 61 84 0.0 0.0 0.00 0.00 0.00 100 1012.7
20260906051206 61 84 0.0 0.0 0.00 0.00 0.00 100 1013.0
20260906045206 61 84 0.0 0.0 0.00 0.00 0.00 100 1013.0
20260906043208 61 84 0.0 0.0 0.00 0.00 0.00 100 1012.9
20260906043104 61 84 0.0 0.0 0.00 0.00 0.00 100 1012.9
20260906041207 61 84 0.0 0.0 0.00 0.00 0.00 100 1012.9
20260906033104 61 84 0.0 0.0 0.00 0.00 0.00 100 1012.9
20260906031207 61 84 0.0 0.0 0.00 0.00 0.00 100 1012.8
20260906025207 61 84 0.0 0.0 0.00 0.00 0.00 100 1012.5
20260906023104 62 83 0.0 0.0 0.00 0.00 0.00 100 1012.6
20260906021206 62 84 0.0 0.0 0.00 0.00 0.00 100 1012.6
20260906015207 62 84 0.0 0.0 0.00 0.00 0.00 100 1012.8
20260906013206 63 310 0.0 0.0 0.00 0.00 0.00 100 1012.8
20260906013104 63 310 0.0 0.0 0.00 0.00 0.00 100 1012.8
20260906011206 64 309 0.0 0.0 0.00 0.00 0.00 100 1012.6
20260906005207 65 310 0.0 0.0 0.00 0.00 0.00 100 1012.4
20260906003207 65 310 0.0 0.0 0.00 0.00 0.00 100 1012.3
20260906003104 65 309 0.0 0.0 0.00 0.00 0.00 100 1012.1
20260906001207 65 309 0.0 0.0 0.00 0.00 0.00 100 1011.7
20260905235206 66 309 0.0 0.0 0.00 0.00 0.00 100 1011.4
20260905233206 66 309 0.0 0.0 0.00 0.00 0.00 100 1011.3
20260905233103 66 310 0.0 0.0 0.00 0.00 0.00 100 1011.3
20260905231206 67 310 0.0 0.0 0.00 0.00 0.00 100 1011.3
20260905225206 67 310 0.0 0.0 0.00 0.00 0.00 100 1011.2